Home   Weather   Perth   Past weeks

Flag for Australia Past Weather in Perth, Western Australia, Australia — Yesterday and Last 2 Weeks

Now
45 °F

Passing clouds.


Feels Like: 42 °F
Forecast: 49 / 64 °F
Wind: 5 mph from Northeast

Location: Belmont Perth Airport

Current Time: Sep 30, 2016 at 2:51:08 AM

Latest Report: Sep 30, 2016 at 2:00 AM


Visibility: N/A

Pressure: 29.86 "Hg

Humidity: 93%

Dew Point: 43 °F

Location of PerthLocation

Past Weather in Perth — Graph

°F

Perth Temperature Yesterday

Maximum temperature yesterday: 66 °F (at 3:00 PM)
Minimum temperature yesterday: 41 °F (at 12:00 AM)
Average temperature yesterday: 53 °F

High & Low Weather Summary for the Past Weeks

 TemperatureHumidityPressure
High73 °F (Sep 21, 2:30 PM)100% (Sep 15, 3:30 AM)30.30 "Hg (Sep 15, 3:30 AM)
Low37 °F (Sep 18, 6:30 AM)27% (Sep 21, 2:30 PM)29.77 "Hg (Sep 18, 8:00 PM)
Average53 °F71%30.04 "Hg
* Reported Sep 15 1:00 AM — Sep 30 1:30 AM, Perth, Weather by CustomWeather, © 2016

Note: Actual official high and low records may vary slightly from our data, if they occured in-between our weather recording intervals... More about our weather records

Advertising

Perth Weather History for the Previous 24 Hours

Scroll right to see more
 ConditionsComfort  
Time TempWeatherWind HumidityBarometerVisibility
1:30 AM
Fri, Sep 30
45 °FPassing clouds.6 mph93%29.86 "HgN/A
1:00 AM45 °FPassing clouds.7 mph93%29.86 "HgN/A
12:30 AM45 °FPassing clouds.3 mph93%29.86 "HgN/A
12:00 AM43 °FClear.No wind100%29.89 "Hg10 mi
11:30 PM
Thu, Sep 29
45 °FClear.No wind93%29.89 "Hg10 mi
11:00 PM45 °FClear.No wind93%29.92 "Hg10 mi
10:30 PM46 °FClear.No wind87%29.92 "Hg10 mi
10:00 PM46 °FClear.6 mph93%29.92 "Hg10 mi
9:30 PM48 °FClear.6 mph87%29.95 "Hg10 mi
9:00 PM52 °FClear.7 mph72%29.95 "Hg10 mi
8:30 PM54 °FClear.7 mph67%29.98 "Hg10 mi
8:00 PM55 °FClear.7 mph63%29.98 "Hg10 mi
7:30 PM55 °FClear.7 mph63%29.95 "Hg10 mi
7:00 PM57 °FClear.10 mph55%29.95 "Hg10 mi
6:30 PM57 °FClear.10 mph51%29.95 "Hg10 mi
6:00 PM59 °FSunny.12 mph48%29.95 "Hg10 mi
5:30 PM61 °FSunny.12 mph45%29.95 "Hg10 mi
5:00 PM61 °FSunny.15 mph45%29.95 "Hg10 mi
4:30 PM64 °FSunny.13 mph40%29.95 "Hg10 mi
4:00 PM66 °FPassing clouds.8 mph35%29.95 "HgN/A
3:30 PM66 °FSunny.6 mph35%29.95 "Hg10 mi
3:00 PM66 °FSunny.3 mph32%29.98 "Hg10 mi
2:30 PM64 °FPassing clouds.6 mph37%30.01 "HgN/A
2:00 PM64 °FSunny.6 mph37%30.01 "Hg10 mi
1:30 PM64 °FSunny.2 mph37%30.04 "Hg10 mi
1:00 PM63 °FSunny.2 mph37%30.07 "Hg10 mi
12:30 PM63 °FPassing clouds.8 mph37%30.07 "HgN/A
12:00 PM61 °FPassing clouds.8 mph42%30.09 "HgN/A
11:30 AM59 °FPassing clouds.6 mph42%30.12 "HgN/A
11:00 AM59 °FPassing clouds.5 mph42%30.12 "HgN/A
10:30 AM59 °FSunny.7 mph42%30.15 "Hg10 mi
10:00 AM57 °FSunny.8 mph44%30.15 "Hg10 mi
9:30 AM55 °FSunny.13 mph44%30.15 "Hg10 mi
9:00 AM55 °FSunny.14 mph44%30.15 "Hg10 mi
8:30 AM54 °FSunny.13 mph51%30.15 "Hg10 mi
8:00 AM50 °FSunny.14 mph54%30.18 "Hg10 mi
7:30 AM48 °FSunny.12 mph58%30.18 "Hg10 mi
7:00 AM46 °FSunny.14 mph62%30.18 "Hg10 mi
6:30 AM45 °FSunny.14 mph66%30.18 "Hg10 mi
6:00 AM43 °FSunny.14 mph71%30.18 "Hg10 mi
5:30 AM43 °FClear.14 mph76%30.18 "Hg10 mi
5:00 AM45 °FClear.15 mph71%30.18 "Hg10 mi
4:30 AM45 °FClear.15 mph71%30.15 "Hg10 mi
4:00 AM45 °FClear.15 mph71%30.15 "Hg10 mi
3:30 AM45 °FClear.17 mph71%30.15 "Hg10 mi
3:00 AM46 °FClear.16 mph66%30.15 "Hg10 mi
2:30 AM46 °FClear.13 mph71%30.15 "Hg10 mi
2:00 AM46 °FClear.5 mph71%30.18 "Hg10 mi
Weather by CustomWeather, © 2016

See weather overviewHow to use our weather pages